Regional Weather Roundup
Issued by NWS

Home | Current Version | Previous Version | Graphics & Text | Print | Product List | Glossary On
Versions: 1 2 3 4 5 6 7 8 9 10 11 12 13 14 15 16 17 18 19 20 21 22 23 24 25 26 27 28 29 30 31 32 33 34 35 36 37 38 39 40 41 42 43 44 45 46 47 48 49 50
000
ASUS43 KBIS 011459
RWRND

NORTH DAKOTA REGIONAL WEATHER ROUNDUP
NATIONAL WEATHER SERVICE BISMARCK ND
1000 AM CDT FRI AUG 01 2014

NOTE: "FAIR" INDICATES FEW OR NO CLOUDS BELOW 12,000 FEET WITH NO
SIGNIFICANT WEATHER AND/OR OBSTRUCTIONS TO VISIBILITY.


NDZ001>003-009>011-017-011600-
NORTHWEST NORTH DAKOTA

CITY           SKY/WX    TMP DP  RH WIND       PRES   REMARKS
WILLISTON      LGT RAIN  69  57  65 N17       30.10R
MINOT          SUNNY     72  62  71 NE3       30.08S
$$

NDZ018>021-031>035-040>046-011600-
SOUTHWEST NORTH DAKOTA

CITY           SKY/WX    TMP DP  RH WIND       PRES   REMARKS
BISMARCK       SUNNY     76  57  51 SE8       30.08S
GARRISON         N/A     73  62  68 E8        30.08R
HETTINGER ARPT MOSUNNY   74  55  51 SE6       30.08S
$$

NDZ004>008-012>016-024-026-027-054-011600-
NORTHEAST NORTH DAKOTA

CITY           SKY/WX    TMP DP  RH WIND       PRES   REMARKS
GRAND FORKS    SUNNY     72  59  63 NE5       30.06S
DEVILS LAKE    SUNNY     73  57  56 SE5       30.09R
$$

NDZ022-023-025-028>030-036>039-047>053-011600-
SOUTHEAST NORTH DAKOTA

CITY           SKY/WX    TMP DP  RH WIND       PRES   REMARKS
FARGO          PTSUNNY   72  63  73 N5        30.06S
$$




USA.gov is the U.S. government's official web portal to all federal, state and local government web resources and services.